TimeGMT,TemperatureF,Dew PointF,Humidity,Sea Level PressureIn,VisibilityMPH,Wind Direction,Wind SpeedMPH,Gust SpeedMPH,PrecipitationIn,Events,Conditions,WindDirDegrees,DateUTC
12:50 AM,42.8,39.2,87,29.89,6.2,South,9.2,-,N/A,,Unknown,170,2012-11-09 00:50:00
1:50 AM,41.0,37.4,87,29.86,6.2,South,8.1,-,N/A,,Partly Cloudy,180,2012-11-09 01:50:00
2:50 AM,42,38,82,29.85,25,South,9.2,,,,Scattered Clouds,180,2012-11-09 02:50:00
2:50 AM,42.8,39.2,87,29.83,6.2,South,9.2,-,N/A,,Mostly Cloudy,180,2012-11-09 02:50:00
3:50 AM,42.8,39.2,87,29.80,6.2,South,9.2,-,N/A,,Scattered Clouds,180,2012-11-09 03:50:00
4:50 AM,44.6,39.2,81,29.77,6.2,South,10.4,-,N/A,,Mostly Cloudy,170,2012-11-09 04:50:00
5:50 AM,45,40,75,29.78,34,South,6.9,,,,,170,2012-11-09 05:50:00
5:50 AM,44.6,39.2,81,29.77,6.2,South,6.9,-,N/A,,Overcast,170,2012-11-09 05:50:00
6:50 AM,46.4,41.0,81,29.74,6.2,South,8.1,-,N/A,,Overcast,170,2012-11-09 06:50:00
7:50 AM,48.2,39.2,71,29.74,6.2,SSW,10.4,-,N/A,,Mostly Cloudy,200,2012-11-09 07:50:00
8:50 AM,49,41,64,29.73,31,SSW,17.3,,,,Partly Cloudy,200,2012-11-09 08:50:00
8:50 AM,50.0,41.0,71,29.71,6.2,SSW,17.3,-,N/A,,Mostly Cloudy,200,2012-11-09 08:50:00
9:50 AM,50.0,41.0,71,29.68,6.2,South,13.8,-,N/A,,Mostly Cloudy,190,2012-11-09 09:50:00
10:50 AM,51.8,41.0,67,29.68,6.2,SSW,19.6,-,N/A,,Mostly Cloudy,200,2012-11-09 10:50:00
11:50 AM,51,42,63,29.66,25,SSW,17.3,,,,Mostly Cloudy,200,2012-11-09 11:50:00
11:50 AM,51.8,42.8,71,29.65,6.2,SSW,17.3,-,N/A,,Mostly Cloudy,200,2012-11-09 11:50:00
12:50 PM,51.8,41.0,67,29.62,6.2,SW,16.1,-,N/A,,Mostly Cloudy,220,2012-11-09 12:50:00
1:50 PM,51.8,41.0,67,29.59,6.2,SSW,16.1,-,N/A,,Mostly Cloudy,210,2012-11-09 13:50:00
2:50 PM,51,42,63,29.58,31,SSW,15.0,,,,Mostly Cloudy,200,2012-11-09 14:50:00
2:50 PM,50.0,42.8,76,29.56,6.2,SSW,15.0,-,N/A,,Mostly Cloudy,200,2012-11-09 14:50:00
3:50 PM,50.0,42.8,76,29.56,6.2,SSW,15.0,-,N/A,Rain,Light Rain,200,2012-11-09 15:50:00
4:50 PM,48.2,44.6,87,29.53,6.2,SSW,16.1,-,N/A,Rain,Light Rain,200,2012-11-09 16:50:00
5:50 PM,48,45,84,29.53,14,South,16.1,,,Rain,Light Rain,190,2012-11-09 17:50:00
5:50 PM,48.2,44.6,87,29.50,6.2,South,16.1,-,N/A,Rain,Light Rain,190,2012-11-09 17:50:00
6:50 PM,48.2,44.6,87,29.50,6.2,South,12.7,-,N/A,Rain,Light Rain,190,2012-11-09 18:50:00
7:50 PM,48.2,44.6,87,29.47,6.2,SSW,16.1,-,N/A,Rain,Light Rain,200,2012-11-09 19:50:00
8:50 PM,48,44,81,29.49,13,SSW,15.0,,,Rain,Rain,200,2012-11-09 20:50:00
8:50 PM,48.2,44.6,87,29.47,6.2,SSW,15.0,-,N/A,,Mostly Cloudy,200,2012-11-09 20:50:00
9:50 PM,48.2,44.6,87,29.47,6.2,South,10.4,-,N/A,,Mostly Cloudy,190,2012-11-09 21:50:00
10:50 PM,46.4,44.6,93,29.44,6.2,West,5.8,-,N/A,,Mostly Cloudy,270,2012-11-09 22:50:00
11:50 PM,46,44,92,29.45,5,South,5.8,,,,Mist,170,2012-11-09 23:50:00
11:50 PM,46.4,44.6,93,29.44,5.0,South,5.8,-,N/A,,Mostly Cloudy,170,2012-11-09 23:50:00